QPF
0.00 0.00 0.00 0.00 0.00 0.00 0.00 0.00 0.00 0.00 0.00 0.00 0.00 0.00 0.00 0.00 0.00 0.00 0.00 0.00 0.00 0.00 0.00 0.00 0.00 0.00 0.00 0.00 0.00 0.00 0.00 0.00 0.00 0.00 0.00 0.00 0.00 0.00 0.00 0.00 0.00 0.00 0.00 0.00 0.00 0.00 0.00 0.00 0.00
0.00 0.00 0.00 0.00 0.00 0.00 0.00 0.00 0.00 0.00 0.00 0.00 0.00 0.00 0.00 0.00 0.00 0.00 0.00 0.00 0.00 0.00 0.00 0.00 0.00 0.00 0.00 0.00 0.00 0.00 0.00 0.00 0.00 0.00 0.00 0.00 0.00 0.00 0.00 0.00 0.00 0.00 0.00 0.00 0.00 0.00 0.00 0.00 0.00
0.00 0.00 0.00 0.00 0.00 0.00 0.00 0.00 0.00 0.00 0.00 0.00 0.00 0.00 0.00 0.00 0.00 0.00 0.00 0.00 0.00 0.00 0.00 0.00 0.00 0.00 0.00 0.00 0.00 0.00 0.00 0.00 0.00 0.00 0.00 0.00 0.00 0.00 0.00 0.00 0.00 0.00 0.00 0.00 0.00 0.00 0.00 0.00 0.01
0.00 0.00 0.00 0.00 0.00 0.00 0.00 0.00 0.00 0.00 0.00 0.00 0.00 0.00 0.00 0.00 0.00 0.00 0.00 0.00 0.00 0.00 0.00 0.00 0.00 0.00 0.00 0.00 0.00 0.00 0.00 0.00 0.00 0.00 0.00 0.00 0.00 0.00 0.00 0.00 0.00 0.00 0.00 0.00 0.00 0.00 0.00 0.00 0.00
0.00 0.00 0.00 0.00 0.00 0.00 0.00 0.00 0.00 0.00 0.00 0.00 0.00 0.00 0.00 0.00 0.00 0.00 0.00 0.00 0.00 0.00 0.00 0.00 0.00 0.00 0.00 0.00 0.00 0.00 0.00 0.00 0.00 0.00 0.00 0.00 0.00 0.00 0.00 0.00 0.00 0.00 0.00 0.00 0.00 0.00 0.00 0.00 0.00
0.00 0.00 0.00 0.00 0.00 0.00 0.00 0.00 0.00 0.00 0.00 0.00 0.00 0.00 0.00 0.00 0.00 0.00 0.00 0.00 0.00 0.00 0.00 0.00 0.00 0.00 0.00 0.00 0.00 0.00 0.00 0.00 0.00 0.00 0.00 0.00 0.00 0.00 0.00 0.00 0.00 0.00 0.00 0.00 0.00 0.00 0.00 0.00 0.00
0.00 0.00 0.00 0.00 0.00 0.00 0.00 0.00 0.00 0.00 0.00 0.00 0.00 0.00 0.00 0.00 0.00 0.00 0.00 0.00 0.00 0.00 0.00 0.00 0.00 0.00 0.00 0.00 0.00 0.00 0.00 0.00 0.00 0.00 0.00 0.00 0.00 0.00 0.00 0.00 0.00 0.00 0.01 0.02 0.01 0.00 0.00 0.00 0.01
0.00 0.00 0.00 0.00 0.00 0.00 0.00 0.00 0.00 0.00 0.00 0.00 0.00 0.00 0.00 0.00 0.00 0.00 0.00 0.00 0.00 0.00 0.00 0.00 0.00 0.00 0.00 0.00 0.00 0.00 0.00 0.00 0.00 0.00 0.00 0.00 0.00 0.00 0.00 0.00 0.01 0.01 0.01 0.02 0.01 0.00 0.00 0.01 0.01
0.00 0.00 0.00 0.00 0.00 0.00 0.00 0.00 0.00 0.00 0.00 0.00 0.00 0.00 0.00 0.00 0.00 0.00 0.00 0.00 0.00 0.00 0.00 0.00 0.00 0.00 0.00 0.00 0.00 0.00 0.00 0.00 0.00 0.00 0.00 0.00 0.00 0.00 0.00 0.00 0.00 0.01 0.01 0.02 0.01 0.01 0.01 0.01 0.01
0.00 0.00 0.00 0.00 0.00 0.00 0.00 0.00 0.00 0.00 0.00 0.00 0.00 0.00 0.00 0.00 0.00 0.00 0.00 0.00 0.00 0.00 0.00 0.00 0.00 0.00 0.00 0.00 0.00 0.00 0.00 0.00 0.00 0.00 0.00 0.00 0.01 0.01 0.00 0.00 0.00 0.00 0.01 0.01 0.01 0.01 0.02 0.01 0.01
0.00 0.00 0.00 0.00 0.00 0.00 0.00 0.00 0.00 0.00 0.00 0.00 0.00 0.00 0.00 0.00 0.00 0.00 0.00 0.00 0.00 0.00 0.00 0.00 0.00 0.00 0.00 0.00 0.00 0.00 0.00 0.01 0.01 0.00 0.00 0.00 0.01 0.00 0.00 0.00 0.00 0.00 0.01 0.02 0.02 0.03 0.02 0.02 0.07
0.00 0.00 0.00 0.00 0.00 0.00 0.00 0.00 0.00 0.00 0.00 0.00 0.00 0.00 0.00 0.00 0.00 0.00 0.00 0.00 0.00 0.00 0.00 0.00 0.00 0.00 0.00 0.00 0.00 0.00 0.00 0.01 0.01 0.01 0.00 0.00 0.00 0.00 0.00 0.00 0.00 0.01 0.02 0.05 0.07 0.07 0.04 0.04 0.05
0.00 0.00 0.00 0.00 0.00 0.00 0.00 0.00 0.00 0.00 0.00 0.00 0.00 0.00 0.00 0.00 0.00 0.00 0.00 0.00 0.00 0.00 0.00 0.00 0.00 0.00 0.00 0.01 0.00 0.00 0.00 0.00 0.00 0.00 0.00 0.00 0.00 0.00 0.00 0.00 0.00 0.00 0.01 0.02 0.05 0.05 0.04 0.05 0.03
0.00 0.00 0.00 0.00 0.00 0.00 0.00 0.00 0.00 0.00 0.00 0.00 0.00 0.00 0.00 0.00 0.00 0.00 0.00 0.00 0.00 0.00 0.00 0.00 0.00 0.00 0.01 0.01 0.00 0.00 0.00 0.00 0.00 0.00 0.00 0.00 0.00 0.00 0.00 0.00 0.01 0.00 0.00 0.01 0.02 0.03 0.06 0.06 0.06
0.00 0.00 0.00 0.00 0.00 0.00 0.00 0.00 0.00 0.00 0.00 0.00 0.00 0.00 0.00 0.00 0.00 0.00 0.00 0.00 0.00 0.00 0.00 0.00 0.00 0.00 0.00 0.00 0.00 0.00 0.00 0.00 0.00 0.00 0.00 0.00 0.00 0.01 0.01 0.01 0.01 0.01 0.01 0.02 0.02 0.03 0.03 0.02 0.03
0.00 0.00 0.00 0.00 0.00 0.00 0.00 0.00 0.00 0.00 0.00 0.00 0.00 0.00 0.00 0.00 0.00 0.00 0.00 0.00 0.00 0.00 0.00 0.00 0.00 0.00 0.00 0.01 0.00 0.00 0.00 0.00 0.00 0.00 0.00 0.00 0.00 0.02 0.04 0.03 0.02 0.04 0.04 0.03 0.03 0.03 0.02 0.02 0.02
0.00 0.00 0.00 0.00 0.00 0.00 0.00 0.00 0.00 0.00 0.00 0.00 0.00 0.00 0.00 0.00 0.00 0.00 0.00 0.00 0.00 0.00 0.00 0.00 0.00 0.00 0.00 0.01 0.00 0.00 0.00 0.00 0.00 0.00 0.00 0.00 0.01 0.03 0.07 0.06 0.06 0.07 0.05 0.05 0.04 0.03 0.05 0.04 0.04
0.00 0.00 0.00 0.00 0.00 0.00 0.00 0.00 0.00 0.00 0.00 0.00 0.00 0.00 0.00 0.00 0.00 0.00 0.00 0.00 0.00 0.00 0.00 0.00 0.00 0.01 0.01 0.02 0.01 0.01 0.01 0.00 0.00 0.00 0.01 0.04 0.06 0.08 0.13 0.11 0.10 0.11 0.09 0.10 0.09 0.08 0.08 0.06 0.08
0.00 0.00 0.00 0.00 0.00 0.00 0.00 0.00 0.00 0.00 0.00 0.00 0.00 0.00 0.00 0.00 0.00 0.00 0.00 0.00 0.00 0.00 0.00 0.00 0.00 0.01 0.03 0.05 0.06 0.07 0.06 0.06 0.05 0.05 0.08 0.16 0.21 0.22 0.25 0.19 0.20 0.16 0.12 0.09 0.09 0.07 0.05 0.05 0.07
0.00 0.00 0.00 0.00 0.00 0.00 0.00 0.00 0.00 0.00 0.00 0.00 0.00 0.00 0.00 0.00 0.01 0.01 0.01 0.00 0.01 0.01 0.02 0.02 0.02 0.02 0.04 0.07 0.13 0.21 0.24 0.26 0.27 0.30 0.32 0.39 0.41 0.38 0.34 0.31 0.25 0.18 0.12 0.08 0.06 0.04 0.03 0.02 0.03
0.00 0.00 0.00 0.00 0.00 0.00 0.00 0.00 0.00 0.00 0.00 0.00 0.00 0.00 0.00 0.01 0.01 0.01 0.01 0.01 0.02 0.03 0.03 0.02 0.02 0.03 0.06 0.10 0.20 0.31 0.40 0.50 0.59 0.66 0.74 0.74 0.71 0.64 0.56 0.45 0.32 0.19 0.11 0.07 0.04 0.02 0.01 0.02 0.02
0.00 0.00 0.00 0.00 0.00 0.00 0.00 0.00 0.00 0.00 0.00 0.00 0.00 0.00 0.00 0.00 0.00 0.01 0.01 0.01 0.02 0.02 0.02 0.01 0.02 0.03 0.06 0.13 0.22 0.35 0.57 0.78 0.95 1.12 1.23 1.22 1.15 1.04 0.86 0.64 0.41 0.22 0.11 0.05 0.02 0.01 0.01 0.02 0.02
0.00 0.00 0.00 0.00 0.00 0.00 0.00 0.00 0.00 0.00 0.00 0.00 0.00 0.00 0.00 0.00 0.00 0.00 0.00 0.01 0.01 0.01 0.01 0.01 0.01 0.02 0.05 0.09 0.20 0.41 0.67 0.92 1.07 1.18 1.25 1.27 1.24 1.12 0.93 0.67 0.44 0.24 0.10 0.04 0.01 0.01 0.01 0.01 0.02
0.00 0.00 0.00 0.00 0.00 0.00 0.00 0.00 0.00 0.00 0.00 0.00 0.00 0.00 0.00 0.00 0.00 0.00 0.00 0.00 0.00 0.01 0.01 0.01 0.01 0.02 0.04 0.08 0.22 0.49 0.73 0.89 0.97 0.97 0.92 0.88 0.85 0.77 0.63 0.45 0.29 0.17 0.08 0.04 0.02 0.01 0.01 0.01 0.02
0.00 0.00 0.00 0.00 0.00 0.00 0.00 0.00 0.00 0.00 0.00 0.00 0.00 0.00 0.00 0.00 0.00 0.00 0.00 0.00 0.00 0.00 0.01 0.01 0.02 0.02 0.03 0.05 0.08 0.20 0.38 0.52 0.54 0.51 0.47 0.43 0.39 0.34 0.30 0.24 0.19 0.13 0.08 0.04 0.02 0.01 0.01 0.01 0.01
0.00 0.00 0.00 0.00 0.00 0.00 0.00 0.00 0.00 0.00 0.00 0.00 0.00 0.00 0.00 0.00 0.00 0.00 0.00 0.00 0.00 0.00 0.00 0.01 0.02 0.03 0.04 0.06 0.07 0.09 0.13 0.19 0.21 0.20 0.18 0.16 0.15 0.13 0.12 0.13 0.13 0.11 0.07 0.03 0.02 0.02 0.01 0.01 0.01
0.00 0.00 0.00 0.00 0.00 0.00 0.00 0.00 0.00 0.00 0.00 0.00 0.00 0.00 0.00 0.00 0.00 0.00 0.00 0.00 0.00 0.00 0.00 0.01 0.03 0.06 0.09 0.11 0.12 0.12 0.11 0.10 0.09 0.08 0.08 0.09 0.09 0.07 0.07 0.09 0.10 0.09 0.07 0.04 0.03 0.03 0.02 0.02 0.02
0.00 0.00 0.00 0.00 0.00 0.00 0.00 0.00 0.00 0.00 0.00 0.00 0.00 0.00 0.00 0.00 0.00 0.00 0.00 0.00 0.00 0.00 0.01 0.03 0.07 0.11 0.15 0.20 0.23 0.23 0.18 0.11 0.08 0.07 0.06 0.05 0.04 0.03 0.04 0.05 0.05 0.05 0.03 0.02 0.01 0.01 0.01 0.02 0.03
0.00 0.00 0.00 0.00 0.00 0.00 0.00 0.00 0.00 0.00 0.00 0.00 0.00 0.00 0.00 0.00 0.00 0.00 0.00 0.00 0.00 0.01 0.03 0.07 0.11 0.16 0.23 0.30 0.34 0.31 0.24 0.19 0.15 0.11 0.07 0.04 0.02 0.02 0.03 0.03 0.02 0.02 0.01 0.01 0.01 0.01 0.01 0.01 0.02
0.00 0.00 0.00 0.00 0.00 0.00 0.00 0.00 0.00 0.00 0.00 0.00 0.00 0.00 0.00 0.00 0.00 0.00 0.00 0.00 0.00 0.02 0.06 0.12 0.20 0.30 0.41 0.49 0.56 0.61 0.55 0.43 0.30 0.18 0.09 0.04 0.03 0.03 0.02 0.01 0.01 0.00 0.01 0.01 0.01 0.00 0.01 0.01 0.01
MSLP
1011.21 1011.47 1011.75 1011.97 1012.09 1012.06 1011.91 1011.70 1011.48 1011.32 1011.27 1011.33 1011.48 1011.66 1011.79 1011.82 1011.73 1011.55 1011.33 1011.17 1011.15 1011.33 1011.73 1012.31 1013.00 1013.70 1014.29 1014.73 1014.97 1015.06 1015.04 1015.01 1015.04 1015.18 1015.44 1015.79 1016.17 1016.51 1016.76 1016.88 1016.90 1016.84 1016.78 1016.76 1016.82 1016.96 1017.18 1017.42 1017.64
1011.16 1011.46 1011.75 1011.96 1012.04 1011.97 1011.78 1011.50 1011.23 1011.01 1010.90 1010.91 1011.01 1011.14 1011.25 1011.28 1011.21 1011.07 1010.93 1010.85 1010.92 1011.20 1011.69 1012.34 1013.09 1013.83 1014.45 1014.90 1015.15 1015.23 1015.22 1015.19 1015.22 1015.35 1015.59 1015.91 1016.25 1016.54 1016.74 1016.83 1016.82 1016.75 1016.70 1016.70 1016.79 1016.97 1017.22 1017.48 1017.71
1011.19 1011.50 1011.79 1011.98 1012.02 1011.91 1011.66 1011.34 1011.01 1010.75 1010.60 1010.56 1010.62 1010.72 1010.81 1010.84 1010.79 1010.70 1010.61 1010.61 1010.75 1011.10 1011.65 1012.35 1013.13 1013.89 1014.53 1014.99 1015.27 1015.38 1015.39 1015.38 1015.42 1015.56 1015.78 1016.06 1016.35 1016.59 1016.74 1016.79 1016.75 1016.68 1016.64 1016.67 1016.80 1017.01 1017.28 1017.54 1017.75
1011.29 1011.61 1011.89 1012.04 1012.04 1011.89 1011.60 1011.24 1010.88 1010.59 1010.40 1010.34 1010.36 1010.44 1010.52 1010.55 1010.52 1010.45 1010.41 1010.46 1010.65 1011.04 1011.61 1012.32 1013.11 1013.87 1014.52 1015.00 1015.30 1015.46 1015.51 1015.55 1015.62 1015.76 1015.97 1016.22 1016.46 1016.65 1016.75 1016.76 1016.71 1016.65 1016.62 1016.68 1016.84 1017.07 1017.35 1017.59 1017.76
1011.47 1011.79 1012.04 1012.15 1012.11 1011.91 1011.58 1011.20 1010.82 1010.51 1010.31 1010.23 1010.24 1010.31 1010.37 1010.41 1010.40 1010.36 1010.35 1010.42 1010.63 1011.02 1011.58 1012.28 1013.04 1013.78 1014.42 1014.92 1015.25 1015.44 1015.55 1015.63 1015.74 1015.89 1016.09 1016.32 1016.52 1016.66 1016.73 1016.71 1016.66 1016.62 1016.62 1016.71 1016.89 1017.13 1017.39 1017.60 1017.72
1011.70 1011.99 1012.20 1012.26 1012.17 1011.93 1011.58 1011.17 1010.78 1010.47 1010.27 1010.19 1010.21 1010.28 1010.35 1010.40 1010.41 1010.40 1010.40 1010.49 1010.70 1011.07 1011.60 1012.24 1012.95 1013.65 1014.26 1014.75 1015.10 1015.33 1015.49 1015.61 1015.75 1015.92 1016.11 1016.31 1016.49 1016.60 1016.64 1016.62 1016.57 1016.55 1016.58 1016.69 1016.88 1017.11 1017.35 1017.51 1017.58
1011.93 1012.18 1012.33 1012.33 1012.18 1011.90 1011.52 1011.10 1010.71 1010.41 1010.22 1010.15 1010.19 1010.27 1010.37 1010.45 1010.50 1010.51 1010.55 1010.64 1010.84 1011.18 1011.65 1012.23 1012.87 1013.50 1014.07 1014.53 1014.88 1015.13 1015.31 1015.46 1015.62 1015.80 1015.99 1016.18 1016.33 1016.42 1016.45 1016.43 1016.40 1016.39 1016.44 1016.56 1016.75 1016.96 1017.16 1017.28 1017.29
1012.13 1012.31 1012.39 1012.32 1012.11 1011.78 1011.37 1010.94 1010.55 1010.25 1010.08 1010.03 1010.09 1010.21 1010.35 1010.48 1010.58 1010.65 1010.72 1010.83 1011.03 1011.34 1011.76 1012.26 1012.82 1013.37 1013.87 1014.29 1014.61 1014.86 1015.05 1015.21 1015.38 1015.56 1015.74 1015.91 1016.04 1016.12 1016.15 1016.13 1016.11 1016.11 1016.17 1016.29 1016.46 1016.65 1016.80 1016.87 1016.84
1012.25 1012.36 1012.35 1012.21 1011.93 1011.55 1011.10 1010.65 1010.25 1009.96 1009.80 1009.77 1009.86 1010.03 1010.22 1010.42 1010.59 1010.73 1010.86 1011.01 1011.22 1011.51 1011.88 1012.33 1012.80 1013.27 1013.70 1014.06 1014.34 1014.56 1014.73 1014.89 1015.04 1015.21 1015.38 1015.54 1015.66 1015.73 1015.75 1015.74 1015.73 1015.73 1015.78 1015.88 1016.02 1016.17 1016.28 1016.32 1016.25
1012.30 1012.33 1012.24 1012.02 1011.68 1011.24 1010.76 1010.28 1009.87 1009.56 1009.40 1009.39 1009.50 1009.71 1009.97 1010.23 1010.48 1010.71 1010.91 1011.13 1011.37 1011.66 1012.01 1012.40 1012.81 1013.21 1013.56 1013.86 1014.09 1014.26 1014.40 1014.53 1014.66 1014.81 1014.96 1015.10 1015.21 1015.28 1015.31 1015.30 1015.28 1015.28 1015.31 1015.38 1015.48 1015.58 1015.66 1015.66 1015.58
1012.29 1012.25 1012.09 1011.80 1011.41 1010.93 1010.41 1009.90 1009.46 1009.14 1008.96 1008.94 1009.07 1009.30 1009.61 1009.94 1010.27 1010.58 1010.86 1011.14 1011.43 1011.74 1012.08 1012.45 1012.81 1013.15 1013.45 1013.69 1013.86 1013.99 1014.08 1014.18 1014.28 1014.40 1014.53 1014.66 1014.76 1014.83 1014.86 1014.85 1014.83 1014.81 1014.81 1014.85 1014.90 1014.96 1015.00 1014.98 1014.90
1012.27 1012.18 1011.97 1011.64 1011.21 1010.70 1010.15 1009.62 1009.15 1008.79 1008.59 1008.54 1008.66 1008.90 1009.22 1009.60 1009.98 1010.36 1010.71 1011.05 1011.38 1011.72 1012.08 1012.43 1012.77 1013.08 1013.33 1013.52 1013.65 1013.73 1013.79 1013.84 1013.91 1014.01 1014.12 1014.24 1014.34 1014.41 1014.45 1014.44 1014.41 1014.37 1014.35 1014.35 1014.36 1014.38 1014.39 1014.36 1014.28
1012.30 1012.17 1011.93 1011.59 1011.14 1010.62 1010.07 1009.51 1009.02 1008.63 1008.39 1008.31 1008.39 1008.60 1008.92 1009.30 1009.70 1010.11 1010.49 1010.87 1011.24 1011.60 1011.97 1012.33 1012.66 1012.95 1013.18 1013.34 1013.44 1013.48 1013.50 1013.52 1013.56 1013.64 1013.74 1013.86 1013.96 1014.05 1014.09 1014.09 1014.06 1014.01 1013.96 1013.93 1013.91 1013.90 1013.88 1013.84 1013.76
1012.39 1012.26 1012.02 1011.69 1011.26 1010.76 1010.21 1009.66 1009.15 1008.74 1008.45 1008.33 1008.35 1008.51 1008.78 1009.13 1009.50 1009.89 1010.27 1010.65 1011.02 1011.39 1011.76 1012.12 1012.45 1012.74 1012.96 1013.11 1013.19 1013.21 1013.21 1013.20 1013.22 1013.28 1013.38 1013.49 1013.62 1013.72 1013.78 1013.80 1013.77 1013.72 1013.66 1013.60 1013.56 1013.53 1013.50 1013.45 1013.37
1012.58 1012.45 1012.23 1011.93 1011.54 1011.07 1010.56 1010.03 1009.53 1009.11 1008.80 1008.62 1008.59 1008.68 1008.88 1009.15 1009.46 1009.79 1010.11 1010.44 1010.78 1011.12 1011.47 1011.82 1012.15 1012.44 1012.66 1012.81 1012.88 1012.89 1012.87 1012.85 1012.86 1012.91 1013.00 1013.13 1013.27 1013.39 1013.48 1013.52 1013.51 1013.46 1013.40 1013.33 1013.28 1013.24 1013.20 1013.15 1013.07
1012.82 1012.71 1012.52 1012.26 1011.92 1011.51 1011.05 1010.57 1010.10 1009.68 1009.36 1009.15 1009.06 1009.09 1009.20 1009.38 1009.59 1009.82 1010.05 1010.30 1010.56 1010.84 1011.15 1011.47 1011.78 1012.06 1012.28 1012.43 1012.50 1012.51 1012.48 1012.45 1012.45 1012.49 1012.59 1012.73 1012.89 1013.04 1013.15 1013.22 1013.23 1013.20 1013.15 1013.09 1013.03 1013.00 1012.96 1012.92 1012.83
1013.10 1012.99 1012.83 1012.61 1012.33 1011.99 1011.59 1011.16 1010.73 1010.34 1010.03 1009.81 1009.69 1009.65 1009.69 1009.78 1009.88 1009.99 1010.11 1010.24 1010.40 1010.60 1010.84 1011.10 1011.38 1011.64 1011.85 1011.99 1012.06 1012.07 1012.03 1011.99 1011.98 1012.02 1012.12 1012.27 1012.45 1012.63 1012.78 1012.88 1012.92 1012.91 1012.87 1012.82 1012.78 1012.75 1012.73 1012.69 1012.60
1013.35 1013.25 1013.12 1012.94 1012.70 1012.41 1012.07 1011.70 1011.32 1010.98 1010.69 1010.48 1010.34 1010.27 1010.26 1010.26 1010.27 1010.28 1010.28 1010.29 1010.33 1010.42 1010.57 1010.77 1010.99 1011.21 1011.40 1011.52 1011.58 1011.58 1011.54 1011.49 1011.47 1011.51 1011.62 1011.78 1011.98 1012.19 1012.37 1012.49 1012.56 1012.57 1012.55 1012.52 1012.49 1012.48 1012.47 1012.44 1012.37
1013.56 1013.47 1013.35 1013.19 1012.99 1012.74 1012.45 1012.12 1011.79 1011.48 1011.22 1011.03 1010.91 1010.83 1010.79 1010.75 1010.69 1010.61 1010.51 1010.41 1010.35 1010.33 1010.37 1010.48 1010.63 1010.80 1010.95 1011.05 1011.09 1011.07 1011.03 1010.97 1010.96 1011.00 1011.11 1011.29 1011.50 1011.73 1011.93 1012.08 1012.17 1012.21 1012.21 1012.19 1012.17 1012.17 1012.18 1012.17 1012.12
1013.73 1013.64 1013.53 1013.39 1013.21 1012.98 1012.71 1012.40 1012.09 1011.81 1011.58 1011.41 1011.31 1011.25 1011.20 1011.15 1011.06 1010.93 1010.76 1010.58 1010.42 1010.30 1010.25 1010.26 1010.34 1010.44 1010.53 1010.59 1010.61 1010.58 1010.53 1010.48 1010.46 1010.51 1010.63 1010.82 1011.05 1011.30 1011.52 1011.70 1011.81 1011.86 1011.87 1011.86 1011.85 1011.86 1011.88 1011.89 1011.86
1013.87 1013.80 1013.71 1013.59 1013.41 1013.18 1012.90 1012.58 1012.26 1011.98 1011.75 1011.59 1011.51 1011.47 1011.45 1011.41 1011.32 1011.18 1010.98 1010.75 1010.52 1010.32 1010.18 1010.11 1010.10 1010.13 1010.17 1010.19 1010.18 1010.14 1010.08 1010.03 1010.03 1010.09 1010.22 1010.43 1010.67 1010.94 1011.18 1011.37 1011.49 1011.55 1011.57 1011.56 1011.55 1011.57 1011.60 1011.63 1011.63
1014.01 1013.98 1013.93 1013.83 1013.66 1013.42 1013.10 1012.74 1012.38 1012.05 1011.79 1011.62 1011.54 1011.51 1011.52 1011.51 1011.45 1011.32 1011.13 1010.88 1010.61 1010.36 1010.15 1010.00 1009.91 1009.87 1009.86 1009.84 1009.81 1009.76 1009.70 1009.67 1009.68 1009.75 1009.90 1010.12 1010.39 1010.66 1010.92 1011.12 1011.25 1011.32 1011.33 1011.32 1011.31 1011.32 1011.35 1011.39 1011.43
1014.20 1014.24 1014.24 1014.18 1014.01 1013.74 1013.38 1012.96 1012.52 1012.11 1011.79 1011.57 1011.46 1011.43 1011.45 1011.48 1011.46 1011.36 1011.19 1010.95 1010.67 1010.39 1010.13 1009.92 1009.77 1009.67 1009.60 1009.55 1009.50 1009.45 1009.40 1009.38 1009.41 1009.51 1009.67 1009.91 1010.18 1010.47 1010.74 1010.94 1011.08 1011.15 1011.16 1011.14 1011.12 1011.12 1011.15 1011.20 1011.25
1014.43 1014.56 1014.64 1014.62 1014.47 1014.18 1013.77 1013.26 1012.73 1012.22 1011.81 1011.51 1011.34 1011.29 1011.31 1011.35 1011.36 1011.31 1011.18 1010.96 1010.69 1010.40 1010.11 1009.86 1009.66 1009.51 1009.40 1009.33 1009.27 1009.22 1009.19 1009.19 1009.23 1009.35 1009.53 1009.77 1010.05 1010.33 1010.60 1010.81 1010.95 1011.02 1011.04 1011.01 1010.98 1010.96 1010.98 1011.02 1011.08
1014.68 1014.92 1015.08 1015.12 1015.00 1014.69 1014.23 1013.65 1013.01 1012.40 1011.87 1011.48 1011.24 1011.13 1011.13 1011.17 1011.21 1011.20 1011.10 1010.92 1010.67 1010.38 1010.08 1009.80 1009.57 1009.39 1009.26 1009.17 1009.11 1009.07 1009.06 1009.08 1009.14 1009.26 1009.44 1009.68 1009.95 1010.22 1010.48 1010.69 1010.83 1010.91 1010.92 1010.90 1010.86 1010.84 1010.84 1010.87 1010.92
1014.92 1015.25 1015.49 1015.59 1015.49 1015.19 1014.68 1014.04 1013.31 1012.60 1011.96 1011.47 1011.15 1010.98 1010.94 1010.98 1011.03 1011.04 1010.98 1010.83 1010.61 1010.33 1010.04 1009.76 1009.52 1009.32 1009.19 1009.10 1009.04 1009.02 1009.02 1009.06 1009.13 1009.25 1009.42 1009.63 1009.87 1010.13 1010.36 1010.56 1010.70 1010.78 1010.80 1010.79 1010.76 1010.73 1010.72 1010.73 1010.77
1015.08 1015.48 1015.78 1015.92 1015.85 1015.55 1015.02 1014.33 1013.54 1012.75 1012.03 1011.46 1011.06 1010.83 1010.75 1010.76 1010.81 1010.85 1010.81 1010.70 1010.51 1010.27 1009.99 1009.72 1009.49 1009.30 1009.18 1009.10 1009.06 1009.06 1009.09 1009.13 1009.21 1009.32 1009.46 1009.63 1009.83 1010.05 1010.25 1010.42 1010.56 1010.65 1010.69 1010.69 1010.68 1010.66 1010.64 1010.64 1010.65
1015.12 1015.54 1015.87 1016.03 1015.96 1015.66 1015.13 1014.42 1013.60 1012.77 1012.00 1011.37 1010.92 1010.65 1010.53 1010.53 1010.58 1010.63 1010.62 1010.54 1010.39 1010.18 1009.94 1009.70 1009.49 1009.33 1009.23 1009.18 1009.17 1009.20 1009.25 1009.31 1009.38 1009.47 1009.58 1009.70 1009.85 1010.01 1010.17 1010.32 1010.44 1010.54 1010.60 1010.63 1010.64 1010.64 1010.63 1010.62 1010.61
1015.02 1015.41 1015.70 1015.84 1015.77 1015.46 1014.93 1014.23 1013.42 1012.58 1011.81 1011.16 1010.69 1010.40 1010.27 1010.26 1010.31 1010.37 1010.39 1010.35 1010.24 1010.07 1009.87 1009.67 1009.51 1009.39 1009.33 1009.32 1009.35 1009.41 1009.49 1009.57 1009.64 1009.71 1009.79 1009.87 1009.96 1010.06 1010.17 1010.29 1010.40 1010.50 1010.59 1010.65 1010.70 1010.72 1010.73 1010.72 1010.69
1014.80 1015.10 1015.32 1015.39 1015.28 1014.96 1014.44 1013.76 1012.98 1012.18 1011.43 1010.81 1010.36 1010.07 1009.94 1009.93 1010.00 1010.07 1010.12 1010.12 1010.05 1009.93 1009.78 1009.63 1009.51 1009.45 1009.43 1009.48 1009.56 1009.67 1009.78 1009.89 1009.97 1010.04 1010.09 1010.13 1010.17 1010.23 1010.30 1010.38 1010.48 1010.58 1010.69 1010.79 1010.87 1010.93 1010.95 1010.95 1010.92
Thickness
5832 5838 5841 5836 5832 5838 5831 5835 5840 5839 5844 5852 5851 5845 5839 5836 5831 5825 5845 5855 5850 5842 5832 5820 5815 5811 5809 5808 5806 5804 5801 5798 5795 5791 5788 5785 5782 5778 5775 5772 5770 5768 5767 5765 5763 5761 5759 5757 5755
5839 5840 5837 5837 5835 5831 5826 5837 5838 5842 5848 5853 5851 5845 5841 5843 5846 5844 5848 5852 5848 5842 5833 5824 5816 5813 5810 5808 5806 5804 5801 5798 5795 5792 5789 5786 5783 5780 5778 5775 5772 5770 5768 5766 5763 5761 5759 5757 5755
5839 5840 5836 5840 5834 5828 5827 5840 5842 5847 5852 5850 5846 5848 5846 5845 5845 5846 5852 5851 5847 5840 5833 5825 5817 5814 5811 5808 5806 5804 5802 5798 5796 5792 5789 5787 5784 5781 5779 5777 5775 5773 5770 5767 5765 5762 5760 5758 5756
5839 5838 5840 5836 5831 5836 5838 5846 5849 5847 5850 5852 5849 5845 5849 5850 5851 5853 5854 5851 5845 5838 5833 5825 5817 5813 5811 5808 5805 5803 5801 5798 5795 5792 5789 5787 5785 5783 5781 5779 5777 5775 5772 5770 5767 5764 5761 5759 5756
5839 5836 5831 5832 5833 5840 5849 5854 5854 5847 5845 5850 5849 5843 5842 5849 5855 5855 5852 5849 5843 5839 5833 5825 5816 5813 5810 5807 5804 5802 5800 5797 5794 5791 5788 5786 5784 5783 5781 5779 5777 5775 5773 5771 5769 5766 5764 5761 5758
5834 5834 5825 5826 5828 5839 5850 5855 5855 5850 5847 5848 5847 5842 5842 5848 5849 5850 5850 5847 5845 5839 5834 5824 5814 5811 5808 5806 5803 5801 5799 5796 5794 5791 5788 5786 5784 5783 5781 5779 5778 5776 5775 5772 5770 5766 5764 5762 5760
5828 5827 5825 5827 5826 5832 5842 5855 5853 5849 5844 5849 5852 5841 5844 5845 5849 5850 5848 5845 5844 5840 5834 5824 5816 5810 5807 5804 5802 5799 5797 5795 5793 5791 5789 5787 5784 5783 5781 5779 5778 5776 5775 5774 5771 5768 5765 5762 5761
5833 5829 5825 5828 5826 5829 5845 5854 5857 5854 5849 5858 5854 5841 5842 5845 5849 5847 5843 5840 5840 5837 5832 5825 5819 5813 5809 5805 5800 5797 5795 5793 5791 5789 5788 5786 5784 5782 5780 5779 5777 5776 5775 5774 5772 5770 5767 5764 5762
5829 5817 5820 5827 5827 5832 5844 5847 5855 5862 5855 5851 5855 5853 5853 5854 5847 5840 5836 5834 5832 5830 5828 5824 5821 5814 5810 5807 5802 5796 5793 5790 5788 5787 5785 5783 5785 5786 5783 5781 5778 5775 5774 5773 5772 5771 5770 5767 5766
5821 5811 5821 5828 5833 5835 5839 5842 5851 5853 5847 5846 5850 5854 5853 5848 5840 5833 5830 5827 5825 5823 5822 5821 5819 5814 5809 5807 5803 5798 5795 5793 5789 5790 5788 5785 5786 5785 5785 5782 5777 5775 5773 5773 5773 5772 5771 5771 5774
5818 5813 5820 5827 5835 5836 5837 5844 5852 5847 5844 5851 5850 5851 5847 5842 5837 5833 5830 5828 5825 5821 5819 5818 5814 5810 5807 5805 5802 5800 5798 5795 5791 5789 5787 5785 5785 5784 5783 5782 5780 5777 5775 5776 5777 5776 5777 5779 5778
5811 5813 5814 5822 5833 5833 5834 5840 5844 5846 5852 5863 5861 5858 5848 5841 5837 5834 5830 5827 5825 5820 5817 5816 5811 5806 5803 5802 5800 5797 5796 5794 5792 5789 5785 5785 5783 5783 5783 5781 5781 5780 5779 5777 5777 5777 5779 5778 5777
5804 5810 5816 5821 5827 5830 5830 5834 5837 5846 5858 5861 5857 5852 5845 5843 5839 5835 5831 5826 5822 5816 5814 5811 5806 5801 5798 5795 5795 5794 5794 5793 5791 5787 5784 5782 5782 5782 5782 5780 5778 5778 5779 5778 5777 5778 5778 5777 5778
5804 5807 5813 5819 5821 5823 5820 5830 5833 5840 5850 5848 5845 5845 5844 5842 5838 5832 5826 5820 5816 5812 5810 5808 5802 5797 5794 5791 5789 5790 5791 5789 5789 5787 5785 5781 5780 5780 5779 5777 5776 5776 5777 5777 5777 5777 5775 5776 5776
5802 5799 5808 5814 5815 5817 5816 5814 5820 5829 5838 5836 5838 5838 5838 5835 5832 5827 5823 5817 5814 5811 5809 5805 5801 5797 5792 5789 5787 5788 5788 5789 5788 5786 5782 5779 5777 5776 5775 5775 5775 5775 5775 5774 5773 5773 5774 5774 5775
5795 5793 5792 5803 5809 5811 5805 5802 5813 5823 5826 5825 5828 5828 5825 5823 5824 5822 5820 5815 5813 5811 5806 5802 5799 5795 5791 5787 5784 5786 5786 5786 5784 5782 5780 5777 5775 5773 5770 5771 5773 5772 5771 5771 5771 5770 5771 5772 5772
5780 5780 5781 5789 5801 5802 5800 5797 5801 5813 5815 5813 5814 5816 5815 5812 5811 5812 5812 5810 5808 5805 5801 5797 5795 5792 5789 5786 5782 5781 5781 5780 5779 5778 5777 5775 5772 5769 5766 5767 5768 5766 5767 5767 5767 5769 5767 5766 5766
5766 5770 5771 5775 5786 5790 5787 5786 5791 5801 5803 5802 5802 5801 5800 5799 5798 5800 5801 5803 5802 5800 5796 5793 5790 5788 5786 5784 5780 5778 5777 5776 5775 5774 5773 5769 5766 5763 5761 5760 5761 5759 5759 5759 5759 5758 5758 5759 5760
5762 5761 5761 5767 5777 5776 5774 5775 5780 5787 5790 5789 5789 5788 5787 5787 5789 5789 5790 5792 5792 5790 5788 5786 5784 5783 5780 5778 5776 5773 5772 5772 5771 5770 5768 5762 5757 5755 5752 5751 5751 5750 5749 5750 5751 5751 5752 5754 5756
5758 5753 5755 5762 5771 5767 5765 5769 5775 5773 5772 5773 5773 5773 5774 5775 5777 5778 5778 5780 5780 5779 5778 5777 5776 5776 5775 5775 5773 5772 5770 5768 5767 5764 5759 5754 5748 5744 5741 5740 5738 5738 5739 5740 5742 5742 5744 5749 5750
5749 5747 5746 5748 5761 5767 5759 5761 5766 5767 5768 5767 5767 5766 5766 5765 5765 5768 5769 5770 5770 5768 5768 5768 5767 5766 5767 5767 5768 5767 5763 5760 5758 5755 5750 5746 5739 5735 5733 5730 5727 5726 5728 5731 5733 5734 5736 5739 5743
5740 5748 5744 5744 5744 5748 5754 5741 5762 5762 5760 5758 5758 5759 5758 5758 5759 5759 5759 5759 5759 5759 5760 5758 5757 5757 5758 5758 5759 5757 5752 5748 5748 5746 5741 5737 5731 5725 5721 5719 5715 5714 5717 5722 5726 5730 5731 5730 5734
5739 5743 5740 5741 5739 5739 5749 5739 5756 5755 5748 5747 5747 5748 5750 5750 5750 5748 5748 5748 5748 5749 5748 5748 5747 5747 5748 5747 5746 5744 5741 5740 5737 5734 5729 5725 5721 5714 5709 5706 5704 5703 5707 5713 5717 5719 5722 5725 5726
5739 5737 5739 5738 5737 5725 5738 5731 5738 5751 5743 5738 5738 5739 5739 5740 5740 5740 5741 5740 5739 5740 5739 5738 5737 5736 5736 5735 5734 5732 5729 5726 5722 5719 5716 5713 5709 5704 5701 5699 5697 5696 5699 5703 5707 5711 5714 5716 5717
5733 5720 5716 5718 5724 5728 5731 5721 5734 5738 5738 5734 5731 5731 5732 5732 5731 5730 5729 5729 5729 5729 5729 5728 5727 5725 5725 5724 5722 5721 5718 5715 5710 5708 5705 5703 5699 5696 5695 5695 5692 5691 5692 5694 5699 5702 5706 5708 5709
5722 5714 5698 5687 5698 5713 5724 5717 5734 5735 5734 5731 5729 5727 5725 5725 5724 5722 5721 5720 5719 5719 5719 5718 5716 5714 5714 5712 5710 5708 5706 5703 5700 5697 5695 5693 5692 5690 5688 5688 5686 5685 5685 5687 5691 5696 5698 5700 5701
5718 5716 5715 5700 5702 5699 5714 5723 5731 5730 5724 5724 5722 5720 5719 5719 5718 5716 5715 5713 5712 5710 5709 5708 5705 5702 5701 5699 5696 5693 5690 5688 5686 5683 5682 5682 5681 5681 5680 5679 5678 5677 5677 5679 5683 5688 5689 5692 5694
5722 5718 5706 5697 5683 5686 5704 5714 5717 5717 5716 5719 5716 5715 5715 5715 5713 5711 5708 5706 5703 5701 5699 5696 5692 5688 5685 5683 5679 5677 5674 5671 5670 5671 5670 5670 5671 5671 5671 5670 5670 5670 5670 5672 5675 5679 5681 5683 5684
5713 5708 5703 5700 5690 5676 5680 5703 5725 5718 5714 5711 5712 5713 5711 5709 5707 5704 5700 5698 5694 5691 5688 5682 5677 5671 5667 5663 5661 5658 5655 5654 5654 5656 5658 5660 5661 5661 5661 5661 5662 5663 5664 5666 5667 5672 5672 5674 5675
5716 5709 5701 5683 5680 5685 5679 5692 5727 5717 5712 5708 5706 5707 5705 5701 5699 5696 5694 5690 5685 5681 5676 5670 5663 5657 5650 5647 5644 5642 5639 5637 5637 5640 5643 5648 5651 5652 5652 5652 5654 5656 5657 5659 5660 5662 5664 5665 5665